Location: Praha
(50.0830°N, 14.4670°E)
Time: 22:15:59
(UTC+01:00)

ISS - Pass Details

Date: 11 November 2019
Orbit: 412 x 421 km, 51.6° (Epoch: 15 November)

Event Time Altitude Azimuth Distance (km) Brightness Sun altitude
Exits shadow 05:47:30 14° 235° (SW) 1,290 -1.7 -13.0°
Maximum altitude 05:48:08 14° 222° (SW) 1,259 -1.6 -12.9°
Drops below altitude 10° 05:50:02 10° 187° (S) 1,497 -0.9 -12.6°
Sets 05:52:49 0° 162° (SSE) 2,354 0.5 -12.2°
